Погода в селе Белиджи

Россия / Республика Дагестан     41°53′27″N   48°24′48″E
темп.,
°C
ветер,
м/с
пор.,
м/с
влажн.,
%
обл.,
%
осадки,
мм/ч
давл.,
гПа
погр.,
м
24 января, пн
пн2400:00+7сз89720 0.0 1010490
03:00+7сз56710 0.0 1011358
06:00+6ю22640 0.0 1012163
09:00+6ссз12680 0.0 1014354
12:00+6с327199 0.0 1014426
15:00+6ссз447489 0.0 1015422
18:00+7ссз55710 0.0 1017417
21:00+7зюз22672 0.0 1019288
25 января, вт
вт2500:00+6ю337799 0.0 1019165
03:00+6ююв33750 0.0 1019208
06:00+6юв12730 0.0 1020231
09:00+6св11737 0.0 1021338
12:00+7с6474100 0.0 1022693
15:00+7ссз7672100 0.1 1023697
18:00+7с6773100 0.0 1025515
21:00+6с767799 0.1 1025716
26 января, ср
ср2600:00+6с437297 0.0 1024723
03:00+6ссв1170100 0.0 1022618
06:00+5вюв0175100 0.1 1021570
09:00+4зсз2191100 0.6 1020249
12:00+4зсз4396100 0.4 1019283
15:00+5ссз2294100 0.6 1017277
18:00+5сз5391100 0.9 1017507
21:00+5сз5590100 3.1 1017618
27 января, чт
чт2700:00+5сз6688100 2.7 1016618
03:00+5зсз7891100 3.6 1014576
06:00+5сз81097100 1.4 1015700
09:00+5сз101193100 3.3 1016850
12:00+4ссз10108198 0.3 1015868
15:00+4ссз101176100 0.3 1016923
18:00+5ссз111272100 0.0 10171226
21:00+5ссз111171100 0.1 10171219
28 января, пт
пт2800:00+5ссз121173100 0.1 10181249
03:00+4ссз111175100 0.1 10191218
06:00+4ссз121173100 0.1 10211158
09:00+4ссз996870 0.1 10231211
12:00+4ссз666898 0.0 1024967
15:00+4ссз436689 0.0 1024919
18:00+4зсз116398 0.0 1025682
21:00+4ю4466100 0.0 1026558